Showing default

CORVUS BC4, 43767

Orbit data source: Space-Track

CORVUS BC4, 43767 is a payload satellite owned by Astro Digital (US) in SSO that was launched on Mon, 03 Dec 2018 UTC via an FALCON 9 launch vehicle from the Air Force Western Test Range (AFWTR). Payload-class satellites include a variety of spacecraft equipped with specific instruments for various scientific and technological missions. These include communications satellites like Starlink; space stations such as the ISS; scientific satellites like the Hubble; Earth observation satellites from companies like Planet Labs, Umbra, and HawkEye 360; GPS; miniature CubeSats for education and research; and military/defense satellites.

Loading next visibility...
Identifier
43767, 2018-099K
Orbit
SSO
Country
Flag of USUS
Related business
Manufacturer
Astro Digital
Mission
Operational Commercial Imaging
Bus & Motor
CUBESAT 6U, Unknown motor
Mass
10 kg wet, 10 kg dry
Launch date (UTC)
2018-12-03 (7 years ago)
Launch vehicle
FALCON 9
Launch site
Air Force Western Test Range (AFWTR)
Object type
Payload
Rocket body
Debris
Shape & HBR
Box + 2 Pan, 0.2 m
Radar Cross Section
0.092 m², Small (<0.1 m²)

Expand to show TLE details & history
Last TLE update: 1 day ago

TLE from 1 day ago
0 CORVUS BC4
1 43767U 18099K   26034.10015435  .00004615  00000-0  27813-3 0  9998
2 43767  97.4268  80.9807 0010175 102.4291 257.8079 15.11216156392146
Epoch: 2026-02-03T02:24Z
TLE epoch observation values (Epoch: 2026-02-03T02:24:13.335Z)
Latitude
Longitude
-88.3608°
Altitude
537.06 km
Speed
7.593 km/s
True Right ascension
05h 23m 55s
True Declination
0° 00' 00"
Sunlit
Object was in full shadow at epoch
Visualization orbit readout
Latitude
Unknown
Longitude
Unknown
Altitude
Unknown
Speed
Unknown
Apparent Right ascension
Unknown
Apparent Declination
Unknown
Sunlit
N/A
Visualization observer readout
Local Sidereal Time
06:51:16
Azimuth
Unknown
Elevation
Unknown
Doppler factor
Unknown
Orbital elements
Apogee altitude
536.497 km
Perigee altitude
522.44 km
Semi-major axis
6,907.605 km
Eccentricity
0.00102
Inclination
97.4268°
RAAN
80.9807°
Arg. of periapsis
102.4291°
True anomaly
257.69396°
Mean anomaly
257.8079°
Eccentric anomaly
257.75093°
Mean motion
3.78052 °/min
Orbital period
95.22 mins
BSTAR
0.00027813
Loading maneuver chart data...
Computing Atmospheric mass density...
Loading historical data...
Loading historical data...
Loading historical data...
Loading historical data...
Loading historical data...
Loading historical data...
Loading historical data...

Documentation

Showing up to 5 results
|